Вернуться в каталог

FLOCK 4Q 31

АктивенНаукаPO
NORAD 58285·PAYLOAD·🇺🇸 United States

Запущен Nov 11, 2023 с Vandenberg Space Force Base

Loading…

Ближайшие Пролёты (ближайшие 24 часа)

TLE

СвежийSource: Space-Track

Эпоха: Sep 14, 2026, 00:05 UTC

1 58285U 23174AF  26257.00358691  .00342605  00000-0  14882-2 0  9994
2 58285  97.3824 353.8670 0006681 230.6304 129.4374 15.83925314159707

Отслеживайте FLOCK 4Q 31 в реальном времени с AllMySat

Download on the App Store